{"data":{"norad_id":55336,"intl_designator":"2023-013F","name":"STARLINK-5655","alt_names":[],"object_type":"PAYLOAD","status":"ACTIVE","operator":null,"country":"US","launch_date":"2023-01-26","launch_site_code":"AFETR","launch_vehicle":null,"mission":null,"orbit_class":"UNKNOWN","rcs_meters":null,"size_class":null,"mass_kg":null,"dimensions":null,"purposes":["comms"],"wikipedia_slug":null,"has_3d_model":false,"image_url":null,"decayed_at":null,"tle_current":{"epoch":"2026-05-25T04:48:03.551040Z","epoch_age_seconds":53888,"freshness":"FRESH","line1":"1 55336U 23013F   26145.20004110  .00000641  00000+0  32808-4 0  9992","line2":"2 55336  43.0027 216.6009 0001843 288.1134  71.9517 15.27578431183541","mean_motion":15.27578431,"eccentricity":0.0001843,"inclination_deg":43.0027,"raan_deg":216.6009,"arg_perigee_deg":288.1134,"mean_anomaly_deg":71.9517,"bstar":3.2808e-5,"rev_number":18354,"period_min":94.266845536522,"perigee_km":481.78927673075,"apogee_km":484.31831165749,"semimajor_km":6861.1907941941,"source":"CELESTRAK","updated_at":"2026-05-25T13:38:17.760643Z"}}}